Location: Newark
(48.6767°N, 1.3256°E)
Time: 11:48:50
(UTC+00:00)

ISS - Pass Details

Date: 30 November 2019
Orbit: 411 x 421 km, 51.6° (Epoch: 11 December)

Event Time Altitude Azimuth Distance (km) Brightness Sun altitude
Rises 18:59:30 0° 285° (WNW) 2,363 1.2 -28.5°
Reaches altitude 10° 19:01:38 10° 290° (WNW) 1,500 -0.1 -28.9°
Enters shadow 19:02:24 16° 294° (WNW) 1,197 -0.8 -29.0°
